This demonstration page uses our WeatherBlox Daily Observations layout. Learn more.

Left ArrowRight Arrow

Hourly Observations for May 17, 2018

Temp ( °F °C ) Dew Point ( °F °C ) Humidity (%) Winds ( mph kmh ) Pressure ( in mb ) Visibility ( mi km ) Precip ( " mm )
12:53 am 00:53 Cloudy 69 20.6 65 18.3 87 87 N 6 9 29.94 1014 8 13 0.00 0.00
1:53 am 01:53 Clear 67 19.4 63 17.2 87 87 NNE 6 9 29.93 1014 8 13 0.00 0.00
2:53 am 02:53 Clear 65 18.3 62 16.7 90 90 Calm 29.93 1014 9 14 0.00 0.00
3:53 am 03:53 Clear 64 17.8 60 15.6 87 87 NNE 3 6 29.94 1014 10 16 0.00 0.00
4:53 am 04:53 Clear 61 16.1 60 15.6 97 97 Calm 29.93 1014 8 13 0.00 0.00
5:53 am 05:53 Clear 61 16.1 59 15 93 93 Calm 29.94 1014 9 14 0.00 0.00
6:53 am 06:53 Sunny 62 16.7 59 15 90 90 Calm 29.95 1014 10 16 0.00 0.00
7:53 am 07:53 Sunny 65 18.3 59 15 81 81 Calm 29.97 1015 10 16 0.00 0.00
8:53 am 08:53 Sunny 69 20.6 60 15.6 73 73 NNE 6 9 29.98 1015 10 16 0.00 0.00
9:53 am 09:53 Sunny 72 22.2 60 15.6 66 66 NNE 7 11 29.98 1015 10 16 0.00 0.00
10:53 am 10:53 Sunny 75 23.9 62 16.7 64 64 E 6 9 29.98 1015 10 16 0.00 0.00
11:53 am 11:53 Mostly Sunny 77 25 65 18.3 66 66 ENE 12 19 29.98 1015 10 16 0.00 0.00
12:53 pm 12:53 Mostly Sunny 77 25 64 17.8 64 64 ENE 9 15 29.98 1015 10 16 0.00 0.00
1:53 pm 13:53 Mostly Cloudy 81 27.2 65 18.3 58 58 NE 9 15 29.96 1015 10 16 0.00 0.00
2:53 pm 14:53 Mostly Sunny 83 28.3 65 18.3 55 55 ENE 12 19 29.94 1014 10 16 0.00 0.00
3:53 pm 15:53 Mostly Cloudy 80 26.7 63 17.2 56 56 NE 8 13 29.93 1013 10 16 0.00 0.00
4:53 pm 16:53 Mostly Cloudy 76 24.4 69 20.6 79 79 ENE 6 9 29.92 1013 10 16 0.04 1.02
5:16 pm 17:16 Partly Cloudy with Nearby Thunderstorms 77 25 66 18.9 69 69 ENE 10 17 29.94 1014 10 16 0.00 0.00
5:53 pm 17:53 Cloudy with Light Rain 74 23.3 66 18.9 76 76 E 12 19 29.94 1014 10 16 0.00 0.03
6:53 pm 18:53 Sunny 73 22.8 65 18.3 76 76 NE 7 11 29.95 1014 10 16 0.00 0.03
7:53 pm 19:53 Cloudy 72 22.2 66 18.9 82 82 NNE 7 11 29.96 1014 10 16 0.00 0.00
8:53 pm 20:53 Cloudy with Light Rain 71 21.7 67 19.4 87 87 N 6 9 29.96 1015 10 16 0.00 0.03
9:53 pm 21:53 Cloudy 70 21.1 66 18.9 87 87 Calm 29.97 1015 9 14 0.00 0.03
10:53 pm 22:53 Cloudy with Light Rain 70 21.1 66 18.9 87 87 NE 6 9 29.98 1015 10 16 0.00 0.03
11:53 pm 23:53 Cloudy 70 21.1 66 18.9 87 87 NE 6 9 29.98 1015 10 16 0.00 0.03

Powered by AerisWeather